• In Russia
  • List of Countries
  • For 7 days
  • Water Temperature
  • Weather Map
  • Weather Widgets
  • user-avatar
    Login

    Hourly Weather Wien

    Today, 13 November, Wednesday

    Time Temperature Precipitation Wind Pressure Humidity
    00:00 +5°C° 0.1 mm 2 mps 734 mmHg 90%
    01:00 +5°C° 0.1 mm 2 mps 734 mmHg 90%
    02:00 +5°C° 0.1 mm 2 mps 733 mmHg 89%
    03:00 +5°C° 0.1 mm 2 mps 733 mmHg 89%
    04:00 +5°C° 0.1 mm 2 mps 733 mmHg 88%
    05:00 +5°C° 0.2 mm 2 mps 732 mmHg 88%
    06:00 +5°C° 0.2 mm 2 mps 732 mmHg 89%
    07:00 +5°C° 0.2 mm 2 mps 732 mmHg 89%
    08:00 +5°C° 0.7 mm 2 mps 731 mmHg 90%
    09:00 +5°C° 0.7 mm 2 mps 731 mmHg 90%
    10:00 +5°C° 0.7 mm 2 mps 731 mmHg 91%
    11:00 +4°C° 1.1 mm 3 mps 731 mmHg 90%
    12:00 +4°C° 1.1 mm 4 mps 731 mmHg 90%
    13:00 +2°C° 1.1 mm 5 mps 731 mmHg 89%
    14:00 +2°C° 1.7 mm 5 mps 731 mmHg 89%
    15:00 +2°C° 1.7 mm 6 mps 731 mmHg 90%
    16:00 +2°C° 1.7 mm 6 mps 731 mmHg 90%
    17:00 +2°C° 1.3 mm 6 mps 732 mmHg 91%
    18:00 +2°C° 1.3 mm 7 mps 732 mmHg 91%
    19:00 +2°C° 1.3 mm 7 mps 733 mmHg 92%
    20:00 +2°C° 0.4 mm 6 mps 734 mmHg 91%
    21:00 +2°C° 0.4 mm 6 mps 734 mmHg 90%
    22:00 +2°C° 0.4 mm 6 mps 735 mmHg 89%
    23:00 +3°C° 0.1 mm 4 mps 736 mmHg 87%

    Tomorrow, 14 November, Thursday

    Time Temperature Precipitation Wind Pressure Humidity
    00:00 +3°C° 0.1 mm 3 mps 736 mmHg 86%
    01:00 +4°C° 0.1 mm 2 mps 737 mmHg 84%
    02:00 +4°C° 0 mm 2 mps 737 mmHg 85%
    03:00 +5°C° 0 mm 1 mps 737 mmHg 86%
    04:00 +4°C° 0 mm 1 mps 737 mmHg 86%
    05:00 +4°C° 0 mm 1 mps 737 mmHg 87%
    06:00 +4°C° 0 mm 1 mps 737 mmHg 87%
    07:00 +3°C° 0 mm 2 mps 738 mmHg 88%
    08:00 +3°C° 0 mm 3 mps 738 mmHg 84%
    09:00 +4°C° 0 mm 3 mps 738 mmHg 81%
    10:00 +5°C° 0 mm 4 mps 738 mmHg 78%
    11:00 +6°C° 0 mm 5 mps 738 mmHg 75%
    12:00 +7°C° 0 mm 6 mps 737 mmHg 72%
    13:00 +8°C° 0 mm 6 mps 737 mmHg 70%
    14:00 +7°C° 0 mm 6 mps 737 mmHg 73%
    15:00 +7°C° 0 mm 5 mps 737 mmHg 76%
    16:00 +6°C° 0 mm 5 mps 737 mmHg 79%
    17:00 +6°C° 0 mm 5 mps 737 mmHg 81%
    18:00 +6°C° 0 mm 5 mps 737 mmHg 83%
    19:00 +4°C° 0 mm 6 mps 737 mmHg 84%
    20:00 +5°C° 0 mm 6 mps 737 mmHg 85%
    21:00 +5°C° 0 mm 6 mps 737 mmHg 85%
    22:00 +5°C° 0 mm 6 mps 737 mmHg 85%
    23:00 +5°C° 0 mm 6 mps 737 mmHg 86%

    Day after tomorrow, 15 November, Friday

    Time Temperature Precipitation Wind Pressure Humidity
    00:00 +6°C° 0 mm 7 mps 737 mmHg 87%
    01:00 +6°C° 0 mm 7 mps 737 mmHg 89%
    02:00 +6°C° 0 mm 7 mps 737 mmHg 88%
    03:00 +6°C° 0 mm 7 mps 737 mmHg 88%
    04:00 +6°C° 0 mm 7 mps 736 mmHg 88%
    05:00 +6°C° 0 mm 7 mps 736 mmHg 87%
    06:00 +7°C° 0 mm 6 mps 736 mmHg 86%
    07:00 +7°C° 0 mm 6 mps 736 mmHg 86%
    08:00 +9°C° 0 mm 7 mps 736 mmHg 82%
    09:00 +10°C° 0 mm 7 mps 736 mmHg 78%
    10:00 +11°C° 0 mm 8 mps 736 mmHg 74%
    11:00 +11°C° 0 mm 8 mps 736 mmHg 71%
    12:00 +12°C° 0 mm 8 mps 736 mmHg 68%
    13:00 +13°C° 0 mm 8 mps 736 mmHg 65%
    14:00 +12°C° 0 mm 7 mps 736 mmHg 68%
    15:00 +12°C° 0 mm 7 mps 736 mmHg 70%
    16:00 +12°C° 0 mm 7 mps 736 mmHg 72%
    17:00 +12°C° 0 mm 7 mps 736 mmHg 73%
    18:00 +11°C° 0 mm 7 mps 737 mmHg 74%
    19:00 +11°C° 0 mm 7 mps 737 mmHg 75%
    20:00 +11°C° 0 mm 7 mps 737 mmHg 75%
    21:00 +11°C° 0 mm 7 mps 737 mmHg 74%
    22:00 +11°C° 0 mm 7 mps 737 mmHg 73%
    23:00 +11°C° 0 mm 7 mps 737 mmHg 73%

    16 November, Saturday

    Time Temperature Precipitation Wind Pressure Humidity
    00:00 +11°C° 0 mm 6 mps 737 mmHg 74%
    01:00 +11°C° 0 mm 6 mps 737 mmHg 74%
    02:00 +11°C° 0 mm 6 mps 738 mmHg 76%
    03:00 +10°C° 0 mm 5 mps 738 mmHg 78%
    04:00 +11°C° 0 mm 4 mps 738 mmHg 80%
    05:00 +10°C° 0 mm 4 mps 739 mmHg 82%
    06:00 +10°C° 0 mm 4 mps 739 mmHg 85%
    07:00 +8°C° 0 mm 4 mps 740 mmHg 87%
    08:00 +10°C° 0 mm 4 mps 740 mmHg 83%
    09:00 +10°C° 0 mm 3 mps 741 mmHg 79%
    10:00 +11°C° 0 mm 3 mps 742 mmHg 75%
    11:00 +11°C° 0 mm 4 mps 741 mmHg 71%
    12:00 +12°C° 0 mm 4 mps 741 mmHg 68%
    13:00 +13°C° 0 mm 5 mps 741 mmHg 64%
    14:00 +12°C° 0 mm 4 mps 742 mmHg 67%
    15:00 +11°C° 0 mm 4 mps 742 mmHg 70%
    16:00 +11°C° 0 mm 3 mps 742 mmHg 73%
    17:00 +11°C° 0 mm 3 mps 742 mmHg 75%
    18:00 +10°C° 0 mm 3 mps 742 mmHg 77%
    19:00 +10°C° 0 mm 3 mps 742 mmHg 79%
    20:00 +10°C° 0 mm 3 mps 742 mmHg 81%
    21:00 +10°C° 0 mm 3 mps 742 mmHg 83%
    22:00 +11°C° 0 mm 3 mps 742 mmHg 85%
    23:00 +10°C° 0 mm 3 mps 741 mmHg 88%

    17 November, Sunday

    Time Temperature Precipitation Wind Pressure Humidity
    00:00 +10°C° 0 mm 3 mps 741 mmHg 90%
    01:00 +10°C° 0 mm 4 mps 740 mmHg 92%
    02:00 +10°C° 0 mm 4 mps 740 mmHg 91%
    03:00 +10°C° 0 mm 4 mps 740 mmHg 89%
    04:00 +10°C° 0 mm 5 mps 740 mmHg 88%
    05:00 +10°C° 0 mm 5 mps 740 mmHg 88%
    06:00 +10°C° 0 mm 5 mps 739 mmHg 87%
    07:00 +10°C° 0 mm 5 mps 739 mmHg 87%
    08:00 +10°C° 0 mm 5 mps 739 mmHg 85%
    09:00 +10°C° 0 mm 5 mps 739 mmHg 84%
    10:00 +11°C° 0 mm 6 mps 739 mmHg 83%
    11:00 +11°C° 0 mm 6 mps 739 mmHg 81%
    12:00 +13°C° 0 mm 6 mps 739 mmHg 79%
    13:00 +13°C° 0 mm 6 mps 738 mmHg 77%
    14:00 +13°C° 0 mm 6 mps 738 mmHg 77%
    15:00 +13°C° 0 mm 5 mps 738 mmHg 76%
    16:00 +13°C° 0 mm 5 mps 737 mmHg 76%
    17:00 +12°C° 0 mm 5 mps 737 mmHg 77%
    18:00 +12°C° 0 mm 5 mps 737 mmHg 77%
    19:00 +12°C° 0 mm 5 mps 738 mmHg 78%
    20:00 +10°C° 0 mm 5 mps 738 mmHg 77%
    21:00 +10°C° 0 mm 6 mps 738 mmHg 76%
    22:00 +10°C° 0 mm 6 mps 738 mmHg 75%
    23:00 +10°C° 0 mm 6 mps 738 mmHg 76%

    18 November, Monday

    Time Temperature Precipitation Wind Pressure Humidity
    00:00 +9°C° 0 mm 6 mps 737 mmHg 78%
    01:00 +9°C° 0 mm 6 mps 737 mmHg 79%
    02:00 +8°C° 0 mm 6 mps 737 mmHg 80%
    03:00 +8°C° 0 mm 6 mps 737 mmHg 81%
    04:00 +8°C° 0 mm 6 mps 737 mmHg 83%
    05:00 +8°C° 0 mm 6 mps 738 mmHg 83%
    06:00 +8°C° 0 mm 6 mps 738 mmHg 82%
    07:00 +8°C° 0 mm 6 mps 738 mmHg 82%
    08:00 +9°C° 0 mm 6 mps 738 mmHg 79%
    09:00 +10°C° 0 mm 6 mps 738 mmHg 75%
    10:00 +11°C° 0 mm 7 mps 739 mmHg 71%
    11:00 +11°C° 0 mm 7 mps 739 mmHg 70%
    12:00 +11°C° 0 mm 7 mps 739 mmHg 68%
    13:00 +12°C° 0 mm 8 mps 739 mmHg 67%
    14:00 +12°C° 0 mm 7 mps 739 mmHg 67%
    15:00 +12°C° 0 mm 7 mps 739 mmHg 68%
    16:00 +11°C° 0 mm 7 mps 740 mmHg 69%
    17:00 +11°C° 0 mm 6 mps 740 mmHg 71%
    18:00 +10°C° 0 mm 5 mps 740 mmHg 74%
    19:00 +9°C° 0 mm 5 mps 741 mmHg 76%
    20:00 +10°C° 0 mm 4 mps 741 mmHg 78%
    21:00 +10°C° 0 mm 4 mps 741 mmHg 79%
    22:00 +9°C° 0 mm 3 mps 741 mmHg 81%
    23:00 +8°C° 0 mm 4 mps 741 mmHg 81%
    Show more